{"data":{"norad_id":64945,"epoch":"2026-05-25T02:21:19.234656Z","epoch_age_seconds":56646,"freshness":"FRESH","line1":"1 64945U 25158P   26145.09813929  .00004555  00000+0  31945-3 0  9991","line2":"2 64945  97.4528   9.0329 0002130  83.6163 276.5307 15.05662413 46857","mean_motion":15.05662413,"eccentricity":0.000213,"inclination_deg":97.4528,"raan_deg":9.0329,"arg_perigee_deg":83.6163,"mean_anomaly_deg":276.5307,"bstar":0.00031945,"rev_number":4685,"period_min":95.638968441195,"perigee_km":547.99749770709,"apogee_km":550.94865960059,"semimajor_km":6927.6100786538,"source":"CELESTRAK","updated_at":"2026-05-25T13:38:20.632843Z"}}